User: anonymous   Login
Location: Unspecified
(0.0000°N, 0.0000°E)
Time: 07:11:25
(UTC+00:00)
Language:

Alouette 2 - Orbit

View from above orbital plane
View from above orbital plane
View from above satellite
View from above satellite

Ground track
Ground track

The orbit data is extracted from the following two-line orbital elements,

1  1804U 65098A   18225.91212766 -.00000015 +00000-0 -31776-5 0  9990
2  1804 079.8035 184.8869 1342535 260.5556 084.1706 12.25343399328193
Epoch (UTC): 13 August 2018 21:53:27
Eccentricity: 0.1342535
inclination: 79.8035°
perigee height: 502 km
apogee height: 2636 km
right ascension of ascending node: 184.8869°
argument of perigee: 260.5556°
revolutions per day: 12.25343399
mean anomaly at epoch: 84.1706°
orbit number at epoch: 32819

The dashed part of the orbit path shows where the satellite is in the earth's shadow,  

DLR